User: anonymous   Login
Location: NJAA Observatory
(40.6819°N, 74.8979°W)
Time: 07:24:30
(UTC-05:00)
Language:

ATLAS CENTAUR R/B - Orbit

View from above orbital plane
View from above orbital plane
View from above satellite
View from above satellite

Ground track
Ground track

The orbit data is extracted from the following two-line orbital elements,

1 28385U 04034B   15048.78364255 0.00047500  00000-0  15957-2 0    03
2 28385  57.3304 235.3071 3997935  54.9991 336.3754  7.49369772    08
Epoch (UTC): 17 February 2015 18:48:26
Eccentricity: 0.3997935
inclination: 57.3304°
perigee height: 242 km
apogee height: 9062 km
right ascension of ascending node: 235.3071°
argument of perigee: 54.9991°
revolutions per day: 7.49369772
mean anomaly at epoch: 336.3754°
orbit number at epoch: 0

The dashed part of the orbit path shows where the satellite is in the earth's shadow,  

DLR